When you browse on this site, cookies collect data to enhance your experience and personalize the content and advertising you see.
Visit our Privacy Policy to learn more. By continuing to use the site, you agree to this use of cookies and data.
  • In Schweiz
  • Länderverzeichnis
  • Für 7 Tage
  • Wassertemperatur
  • Satellitenkarten
  • Wetterkarte
  • Widgets
  • user-avatar
    Anmelden

    Stündliche Wetter Lyahi

    Heute, 21 November, Mittwoch

    Zeit Temperatur Niederschläge Wind Luftdruck Luftfeuchtigkeit
    00:00 -4°C° 0 mm 4 m/S 756 mmHg 88%
    01:00 -4°C° 0 mm 4 m/S 756 mmHg 90%
    02:00 -5°C° 0 mm 3 m/S 756 mmHg 90%
    03:00 -5°C° 0 mm 3 m/S 756 mmHg 90%
    04:00 -5°C° 0 mm 3 m/S 756 mmHg 91%
    05:00 -5°C° 0 mm 3 m/S 756 mmHg 91%
    06:00 -5°C° 0 mm 3 m/S 756 mmHg 91%
    07:00 -5°C° 0 mm 3 m/S 755 mmHg 91%
    08:00 -5°C° 0 mm 3 m/S 756 mmHg 88%
    09:00 -4°C° 0 mm 4 m/S 756 mmHg 85%
    10:00 -4°C° 0 mm 4 m/S 756 mmHg 82%
    11:00 -3°C° 0 mm 4 m/S 756 mmHg 78%
    12:00 -3°C° 0 mm 4 m/S 756 mmHg 77%
    13:00 -3°C° 0 mm 4 m/S 756 mmHg 76%
    14:00 -3°C° 0 mm 4 m/S 756 mmHg 75%
    15:00 -2°C° 0 mm 3 m/S 756 mmHg 77%
    16:00 -4°C° 0 mm 3 m/S 756 mmHg 79%
    17:00 -4°C° 0 mm 3 m/S 756 mmHg 81%
    18:00 -3°C° 0 mm 2 m/S 756 mmHg 82%
    19:00 -3°C° 0 mm 2 m/S 756 mmHg 83%
    20:00 -4°C° 0 mm 2 m/S 756 mmHg 85%
    21:00 -4°C° 0 mm 2 m/S 757 mmHg 85%
    22:00 -4°C° 0 mm 2 m/S 757 mmHg 85%
    23:00 -2°C° 0 mm 1 m/S 757 mmHg 85%

    Morgen, 22 November, Donnerstag

    Zeit Temperatur Niederschläge Wind Luftdruck Luftfeuchtigkeit
    00:00 -2°C° 0 mm 1 m/S 757 mmHg 85%
    01:00 -2°C° 0 mm 1 m/S 757 mmHg 85%
    02:00 -2°C° 0 mm 1 m/S 757 mmHg 85%
    03:00 -2°C° 0 mm 1 m/S 757 mmHg 85%
    04:00 -2°C° 0 mm 1 m/S 756 mmHg 85%
    05:00 -2°C° 0 mm 1 m/S 756 mmHg 86%
    06:00 -2°C° 0 mm 1 m/S 756 mmHg 85%
    07:00 -3°C° 0 mm 1 m/S 756 mmHg 85%
    08:00 -3°C° 0 mm 1 m/S 756 mmHg 85%
    09:00 -2°C° 0 mm 1 m/S 756 mmHg 81%
    10:00 -1°C° 0 mm 1 m/S 757 mmHg 76%
    11:00 0°C° 0 mm 1 m/S 757 mmHg 72%
    12:00 0°C° 0 mm 1 m/S 757 mmHg 69%
    13:00 +1°C° 0 mm 1 m/S 756 mmHg 67%
    14:00 +1°C° 0 mm 1 m/S 756 mmHg 65%
    15:00 0°C° 0 mm 1 m/S 756 mmHg 69%
    16:00 0°C° 0 mm 1 m/S 756 mmHg 73%
    17:00 -1°C° 0 mm 1 m/S 756 mmHg 77%
    18:00 -1°C° 0 mm 1 m/S 756 mmHg 78%
    19:00 -1°C° 0 mm 1 m/S 756 mmHg 78%
    20:00 -2°C° 0 mm 1 m/S 756 mmHg 78%
    21:00 -2°C° 0 mm 1 m/S 756 mmHg 79%
    22:00 -2°C° 0 mm 1 m/S 756 mmHg 79%
    23:00 -2°C° 0 mm 1 m/S 756 mmHg 79%

    übermorgen, 23 November, Freitag

    Zeit Temperatur Niederschläge Wind Luftdruck Luftfeuchtigkeit
    00:00 -2°C° 0 mm 1 m/S 756 mmHg 80%
    01:00 -2°C° 0 mm 1 m/S 756 mmHg 80%
    02:00 -2°C° 0 mm 1 m/S 756 mmHg 80%
    03:00 -2°C° 0 mm 1 m/S 756 mmHg 81%
    04:00 -2°C° 0 mm 1 m/S 756 mmHg 82%
    05:00 -2°C° 0 mm 1 m/S 757 mmHg 82%
    06:00 -3°C° 0 mm 1 m/S 757 mmHg 83%
    07:00 -3°C° 0 mm 1 m/S 757 mmHg 84%
    08:00 -3°C° 0 mm 1 m/S 757 mmHg 84%
    09:00 -2°C° 0 mm 1 m/S 757 mmHg 80%
    10:00 -1°C° 0 mm 1 m/S 757 mmHg 76%
    11:00 0°C° 0 mm 1 m/S 757 mmHg 73%
    12:00 0°C° 0 mm 1 m/S 757 mmHg 71%
    13:00 0°C° 0 mm 1 m/S 757 mmHg 70%
    14:00 +1°C° 0 mm 1 m/S 757 mmHg 68%
    15:00 -2°C° 0 mm 2 m/S 756 mmHg 73%
    16:00 -3°C° 0 mm 2 m/S 756 mmHg 77%
    17:00 -3°C° 0 mm 2 m/S 756 mmHg 82%
    18:00 -4°C° 0 mm 2 m/S 756 mmHg 81%
    19:00 -4°C° 0 mm 2 m/S 755 mmHg 81%
    20:00 -4°C° 0 mm 2 m/S 755 mmHg 81%
    21:00 -4°C° 0 mm 2 m/S 755 mmHg 80%
    22:00 -5°C° 0 mm 3 m/S 754 mmHg 79%
    23:00 -5°C° 0 mm 3 m/S 754 mmHg 78%

    24 November, Samstag

    Zeit Temperatur Niederschläge Wind Luftdruck Luftfeuchtigkeit
    00:00 -5°C° 0 mm 3 m/S 754 mmHg 77%
    01:00 -4°C° 0 mm 3 m/S 753 mmHg 77%
    02:00 -3°C° 0 mm 2 m/S 753 mmHg 77%
    03:00 -3°C° 0 mm 2 m/S 752 mmHg 80%
    04:00 -3°C° 0 mm 2 m/S 752 mmHg 84%
    05:00 -3°C° 0 mm 2 m/S 751 mmHg 87%
    06:00 -3°C° 0 mm 2 m/S 751 mmHg 90%
    07:00 -3°C° 0 mm 2 m/S 750 mmHg 93%
    08:00 -3°C° 0 mm 2 m/S 750 mmHg 95%
    09:00 -2°C° 0 mm 2 m/S 750 mmHg 94%
    10:00 -1°C° 0 mm 2 m/S 749 mmHg 94%
    11:00 0°C° 0 mm 3 m/S 749 mmHg 93%
    12:00 +1°C° 0 mm 2 m/S 749 mmHg 93%
    13:00 +2°C° 0 mm 2 m/S 748 mmHg 93%
    14:00 +2°C° 0 mm 2 m/S 748 mmHg 93%
    15:00 +2°C° 0 mm 2 m/S 748 mmHg 94%
    16:00 +1°C° 0 mm 2 m/S 748 mmHg 95%
    17:00 +2°C° 0 mm 1 m/S 747 mmHg 95%
    18:00 +2°C° 0.1 mm 1 m/S 747 mmHg 95%
    19:00 +2°C° 0.1 mm 1 m/S 747 mmHg 96%
    20:00 +2°C° 0.1 mm 1 m/S 747 mmHg 96%
    21:00 +2°C° 0.2 mm 1 m/S 747 mmHg 96%
    22:00 +2°C° 0.2 mm 1 m/S 746 mmHg 96%
    23:00 +2°C° 0.2 mm 1 m/S 746 mmHg 96%

    25 November, Sonntag

    Zeit Temperatur Niederschläge Wind Luftdruck Luftfeuchtigkeit
    00:00 +2°C° 0.4 mm 1 m/S 746 mmHg 97%
    01:00 +2°C° 0.4 mm 1 m/S 746 mmHg 97%
    02:00 +2°C° 0.4 mm 1 m/S 745 mmHg 97%
    03:00 +2°C° 0.6 mm 1 m/S 745 mmHg 97%
    04:00 +2°C° 0.6 mm 1 m/S 745 mmHg 97%
    05:00 +2°C° 0.6 mm 1 m/S 745 mmHg 98%
    06:00 +2°C° 0.3 mm 1 m/S 744 mmHg 98%
    07:00 +1°C° 0.3 mm 2 m/S 744 mmHg 98%
    08:00 +1°C° 0.3 mm 2 m/S 744 mmHg 97%
    09:00 +1°C° 0.1 mm 2 m/S 744 mmHg 97%
    10:00 +1°C° 0.1 mm 2 m/S 744 mmHg 96%
    11:00 +1°C° 0.1 mm 2 m/S 745 mmHg 95%
    12:00 +1°C° 0.1 mm 2 m/S 745 mmHg 95%
    13:00 0°C° 0.1 mm 3 m/S 745 mmHg 94%
    14:00 +1°C° 0.1 mm 3 m/S 745 mmHg 94%
    15:00 0°C° 0.1 mm 3 m/S 745 mmHg 94%
    16:00 0°C° 0.1 mm 3 m/S 745 mmHg 95%
    17:00 0°C° 0.1 mm 3 m/S 745 mmHg 96%
    18:00 0°C° 0.1 mm 3 m/S 745 mmHg 96%
    19:00 0°C° 0.1 mm 3 m/S 746 mmHg 95%
    20:00 -1°C° 0.1 mm 3 m/S 746 mmHg 95%
    21:00 -1°C° 0 mm 3 m/S 746 mmHg 94%
    22:00 -1°C° 0 mm 3 m/S 746 mmHg 93%
    23:00 -1°C° 0 mm 3 m/S 747 mmHg 92%

    26 November, Montag

    Zeit Temperatur Niederschläge Wind Luftdruck Luftfeuchtigkeit
    00:00 -1°C° 0 mm 3 m/S 747 mmHg 90%
    01:00 -3°C° 0 mm 4 m/S 747 mmHg 89%
    02:00 -3°C° 0 mm 4 m/S 747 mmHg 88%
    03:00 -3°C° 0 mm 4 m/S 747 mmHg 87%
    04:00 -3°C° 0 mm 4 m/S 747 mmHg 85%
    05:00 -4°C° 0 mm 4 m/S 748 mmHg 84%
    06:00 -4°C° 0 mm 4 m/S 748 mmHg 84%
    07:00 -4°C° 0 mm 4 m/S 748 mmHg 84%
    08:00 -5°C° 0 mm 4 m/S 749 mmHg 84%
    09:00 -4°C° 0 mm 4 m/S 749 mmHg 80%
    10:00 -4°C° 0 mm 4 m/S 749 mmHg 76%
    11:00 -4°C° 0 mm 4 m/S 750 mmHg 73%
    12:00 -3°C° 0 mm 4 m/S 750 mmHg 71%
    13:00 -3°C° 0 mm 4 m/S 750 mmHg 70%
    14:00 -2°C° 0 mm 3 m/S 750 mmHg 69%
    15:00 -4°C° 0 mm 3 m/S 750 mmHg 73%
    16:00 -5°C° 0 mm 3 m/S 750 mmHg 77%
    17:00 -4°C° 0 mm 2 m/S 750 mmHg 80%
    18:00 -4°C° 0 mm 2 m/S 750 mmHg 81%
    19:00 -4°C° 0 mm 2 m/S 751 mmHg 81%
    20:00 -4°C° 0 mm 2 m/S 751 mmHg 82%
    21:00 -4°C° 0 mm 2 m/S 751 mmHg 81%
    22:00 -4°C° 0 mm 2 m/S 751 mmHg 81%
    23:00 -5°C° 0 mm 2 m/S 751 mmHg 81%
    Mehr zeigen